This is the latest recevied weather packets stored in our database for station/object IW3HBX-3. If no packets are shown the sender has not sent any weather packets the latest 1 day(s).
| Time | Temp. | Humidity | Pressure | Rain* | Wind** | Luminosity | Snow |
|---|---|---|---|---|---|---|---|
| 1788611964 | 30.56° C | 52% | 1016.8 hPa | 0 mm | - | 613 W/m² | - |
| 1788611663 | 30° C | 53% | 1016.9 hPa | 0 mm | - | 574 W/m² | - |
| 1788611363 | 30.56° C | 51% | 1017 hPa | 0 mm | - | 637 W/m² | - |
| 1788611063 | 30.56° C | 52% | 1017 hPa | 0 mm | - | 672 W/m² | - |
| 1788610763 | 30° C | 54% | 1017.1 hPa | 0 mm | - | 630 W/m² | - |
| 1788610463 | 30° C | 56% | 1017.3 hPa | 0 mm | - | 624 W/m² | - |
| 1788610163 | 30° C | 52% | 1017.3 hPa | 0 mm | - | 651 W/m² | - |
| 1788609863 | 30° C | 56% | 1017.3 hPa | 0 mm | - | 670 W/m² | - |
| 1788609563 | 30.56° C | 54% | 1017.3 hPa | 0 mm | - | 665 W/m² | - |
| 1788609263 | 30.56° C | 54% | 1017.2 hPa | 0 mm | - | 696 W/m² | - |
| 1788608963 | 30.56° C | 53% | 1017.2 hPa | 0 mm | - | 674 W/m² | - |
| 1788608663 | 30° C | 54% | 1017.2 hPa | 0 mm | - | 663 W/m² | - |
| 1788608362 | 30° C | 56% | 1017.3 hPa | 0 mm | - | 700 W/m² | - |
| 1788608062 | 30.56° C | 54% | 1017.2 hPa | 0 mm | - | 678 W/m² | - |
| 1788607762 | 30° C | 54% | 1017.3 hPa | 0 mm | - | 655 W/m² | - |
| 1788607462 | 30° C | 57% | 1017.3 hPa | 0 mm | - | 702 W/m² | - |
| 1788607162 | 29.44° C | 58% | 1017.4 hPa | 0 mm | - | 707 W/m² | - |
| 1788606862 | 28.89° C | 58% | 1017.3 hPa | 0 mm | - | 702 W/m² | - |
| 1788606562 | 28.89° C | 57% | 1017.3 hPa | 0 mm | - | 593 W/m² | - |
| 1788606262 | 28.89° C | 60% | 1017.3 hPa | 0 mm | - | 670 W/m² | - |
| 1788605962 | 28.89° C | 59% | 1017.4 hPa | 0 mm | - | 670 W/m² | - |
| 1788605662 | 28.89° C | 63% | 1017.4 hPa | 0 mm | - | 666 W/m² | - |
| 1788605362 | 28.89° C | 64% | 1017.4 hPa | 0 mm | - | 567 W/m² | - |
| 1788605061 | 29.44° C | 63% | 1017.4 hPa | 0 mm | - | 511 W/m² | - |
| 1788604761 | 28.89° C | 63% | 1017.4 hPa | 0 mm | - | 584 W/m² | - |
* Rain latest hour (hover to see other rain measurements)
** Current wind speed in m/s (hover to see current wind gust speed)